Weather Roundup
Issued by NWS

Home | Current Version | Previous Version | Text Only | Print | Product List | Glossary On
Versions: 1 2 3 4 5 6 7 8 9 10 11 12 13 14 15 16 17 18 19 20 21 22 23 24 25 26 27 28 29 30 31 32 33 34 35 36 37 38 39 40 41 42 43 44 45 46 47 48 49 50
245
NZUS93 KARX 302010
HRRWXR

CURRENT HOURLY OBSERVATIONS ACROSS
MUCH OF THE UPPER MISSISSIPPI VALLEY
NATIONAL WEATHER SERVICE LA CROSSE WI
300 PM CDT SAT JUL 30 2016


...SOUTHEAST MINNESOTA...


CITY           SKY/WX    TMP DP  RH WIND       PRES   REMARKS
ROCHESTER      LGT RAIN  75  66  73 CALM      30.03S
ROCHESTER/MAYO CLOUDY    74  64  72 W13G18    30.02F
WINONA         MOSUNNY   79  61  53 SE7       30.01F
AUSTIN         CLOUDY    73  64  73 E6        30.01F
ALBERT LEA     CLOUDY    75  66  73 S7        30.01F
DODGE CENTER   PTSUNNY   75  64  69 SE7       30.03F
PRESTON        CLOUDY    74  63  66 E7        30.03F
OWATONNA       TSTM      72  64  78 W9        30.03R
FARIBAULT      MOSUNNY   79  64  61 CALM      30.01F
$$

...ELSEWHERE IN MINNESOTA...


CITY           SKY/WX    TMP DP  RH WIND       PRES   REMARKS
MINNEAPOLIS    PTSUNNY   79  62  56 SE6       30.00F
INTNL FALLS    PTSUNNY   79  60  52 VRB6      29.99F
DULUTH         MOSUNNY   74  62  66 E8        30.04F
RED WING       SUNNY     82  59  44 SE8       29.99F
REDWOOD FALLS  MOSUNNY   79  53  40 VRB5      29.99F
MANKATO        MOSUNNY   79  59  50 SW3       30.00F
WORTHINGTON    MOSUNNY   77  58  51 SE7       30.02F
FAIRMONT       PTSUNNY   75  59  57 CALM      30.01S
$$

...SOUTHWEST WISCONSIN...


CITY           SKY/WX    TMP DP  RH WIND       PRES   REMARKS
LA CROSSE      CLOUDY    78  62  57 E3        30.01F
PRAIRIE DU CHI PTSUNNY   77  62  59 NE6       30.00F
BOSCOBEL       MOSUNNY   81  62  52 VRB7      30.01F
LONE ROCK      MOSUNNY   79  62  56 E6        30.02F
PLATTEVILLE    MOSUNNY   79  64  60 E7        30.02S
FORT MC COY    CLOUDY    80  62  53 SE8       30.03F
CAMP DOUGLAS   PTSUNNY   79  64  61 S7        30.03F
MAUSTON-NEW LI MOCLDY    78  64  60 E5        30.03S
VIROQUA        MOCLDY    80  62  55 SE6       30.04F
WIS DELLS      PTSUNNY   78  61  54 E6        30.04S
$$

...ELSEWHERE IN WISCONSIN...


CITY           SKY/WX    TMP DP  RH WIND       PRES   REMARKS
MILWAUKEE      PTSUNNY   75  62  64 NE10      30.02F
MADISON        CLOUDY    79  61  53 NE7       30.01F
GREEN BAY      SUNNY     76  57  51 N13G22    30.05S
EAU CLAIRE     PTSUNNY   78  61  55 SE8       30.02S
BLACK RVR FLS  CLOUDY    81  59  46 E5        30.02F
MEDFORD        CLOUDY    77  60  55 E6        30.06S
WAUSAU         CLOUDY    76  57  51 SE10      30.05S
WIS RAPIDS     SUNNY     75  58  55 SE8       30.06S
MARSHFIELD     SUNNY     78  60  53 SE10      30.05S
RICE LAKE      MOSUNNY   78  57  49 SE8       30.05F
$$

...NORTHEAST IOWA...


CITY           SKY/WX    TMP DP  RH WIND       PRES   REMARKS
WATERLOO       PTSUNNY   77  65  66 E7        29.99F
DUBUQUE          N/A    N/A N/A N/A MISG      30.01F
DECORAH        MOSUNNY   77  64  65 E8        30.01F
MASON CITY     PTSUNNY   79  64  60 SE7       30.02F
CHARLES CITY   MOSUNNY   79  66  65 MISG      30.02S
OELWEIN        CLOUDY    77  66  69 VRB5      30.02S
$$

...ELSEWHERE IN IOWA...


CITY           SKY/WX    TMP DP  RH WIND       PRES   REMARKS
DES MOINES     PTSUNNY   82  64  54 VRB3      29.99F
IOWA CITY      CLOUDY    80  65  59 CALM      29.99F
FORT DODGE     MOSUNNY   79  64  61 CALM      30.01F
MARSHALLTOWN   PTSUNNY   79  67  66 NE5       30.00F
CEDAR RAPIDS   PTSUNNY   77  68  73 W3        29.98F
$$

...NORTHERN ILLINOIS...


CITY           SKY/WX    TMP DP  RH WIND       PRES   REMARKS
CHICAGO-OHARE  PTSUNNY   76  64  66 NE12      29.98S
CHICAGO-MIDWAY PTSUNNY   77  65  66 NE13      29.98R
MOLINE         PTSUNNY   80  64  58 NE9       29.97F
ROCKFORD       PTSUNNY   79  65  62 E9        30.00F
PEORIA         PTSUNNY   81  68  64 VRB7      29.96F
$$

NOTE: "FAIR" INDICATES FEW OR NO CLOUDS BELOW 12,000 FEET WITH NO
SIGNIFICANT WEATHER AND/OR OBSTRUCTIONS TO VISIBILITY. WIND
SPEEDS ARE IN MILES-PER-HOUR.




USA.gov is the U.S. government's official web portal to all federal, state and local government web resources and services.